Location: Central Falls
(41.8900°N, 71.3929°W)
Time: 03:08:27
(UTC+00:00)

Tiros 1 - Pass Details

Date: 09 December 2023
Orbit: 625 x 658 km, 48.4° (Epoch: 01 March)

Event Time Altitude Azimuth Distance (km) Brightness Sun altitude
Rises 09:21:30 0° 271° (W) 2,976 - -28.9°
Reaches altitude 10° 09:23:57 10° 278° (W) 2,069 - -28.4°
Maximum altitude 09:28:30 42° 350° (N) 947 - -27.6°
Exits shadow 09:29:41 35° 26° (NNE) 1,064 8.3 -27.4°
Drops below altitude 10° 09:33:03 10° 61° (ENE) 2,075 10.4 -26.7°
Sets 09:35:30 0° 68° (ENE) 2,987 11.5 -26.3°
